[[{"header":{"parameterUnit":"m.s-1","parameterCategory":1,"la1":30.2991,"la2":30.254,"lo1":-89.0895,"lo2":-89.0444,"dy":0.0017,"dx":0.0017,"nx":28,"ny":28,"refTime":"2025-09-09T09:00:00:Z","depth":0,"parameterNumber":2,"parameterNumberName":"U-component_of_WINDS"},"data":[0,0,0,0,0,0,0,0,0,0,0,0,0,0,0,0,0,0,0,0,0,0,0,0,0,0,0,0,0,0,0,0,0,0,0,0,0,0,0,0,0,0,0,0,0,0,0,0,0,0,0,0,0,0,0,0,0,0,-5.2795,-5.2798,0,-5.2991,-5.2993,-5.2995,-5.291,-5.2905,-5.29,-5.2896,-5.3094,-5.3104,-5.3113,0,0,0,0,0,0,0,0,0,0,0,0,0,-5.2345,-5.2353,-5.2795,-5.2798,-5.28,-5.2991,-5.2993,-5.2996,-5.2911,-5.2905,-5.2899,-5.2894,-5.3091,-5.3102,-5.3114,0,0,0,0,0,0,0,0,0,0,0,0,0,-5.254,-5.2356,-5.2795,-5.2781,-5.2781,-5.299,-5.2993,-5.2997,-5.2912,-5.2905,-5.2898,-5.2891,-5.3087,-5.3101,-5.3116,-5.3349,0,0,-5.316,-5.3167,0,0,0,0,0,0,0,0,-5.2529,-5.2557,-5.278,-5.2782,-5.2783,-5.2919,-5.2907,-5.3115,-5.2914,-5.2862,-5.2896,-5.2888,-5.3042,-5.3059,-5.3112,-5.3358,-5.3367,-5.3162,-5.317,-5.3177,-5.3181,0,0,0,0,0,0,0,-5.2516,-5.2548,-5.2872,-5.2784,-5.2785,-5.2763,-5.2783,-5.2946,-5.299,-5.2866,-5.2861,-5.2885,-5.3041,-5.3098,-5.3116,-5.337,-5.3161,-5.3174,-5.3183,-5.3189,-5.3816,-5.3823,0,0,0,0,0,0,-5.2503,-5.2537,-5.2866,-5.2878,-5.2636,-5.2777,-5.28,-5.2882,-5.2988,-5.2997,-5.2891,-5.288,-5.3076,-5.3099,-5.3122,-5.3401,-5.3177,-5.319,-5.3199,-5.3808,-5.3817,-5.3826,0,0,0,0,0,0,-5.2493,-5.2533,-5.2858,-5.2706,-5.2746,-5.2793,-5.2886,-5.289,-5.2947,-5.3006,-5.3013,-5.2941,-5.3072,-5.3102,-5.3293,-5.3407,-5.3197,-5.321,-5.3798,-5.3811,-5.3822,-5.3961,0,0,0,0,0,0,-5.2481,-5.253,-5.262,-5.2709,-5.2755,-5.3027,-5.2894,-5.2899,-5.2973,-5.2961,-5.3056,-5.3064,-5.3068,-5.3272,-5.3308,-5.3423,-5.3222,-5.3788,-5.3804,-5.3818,-5.3946,-5.3976,-5.4001,0,0,0,0,0,-5.2465,-5.2652,-5.2625,-5.2665,-5.2868,-5.3034,-5.306,-5.3061,-5.2982,-5.3072,-5.311,-5.3061,-5.3389,-5.3292,-5.3332,-5.3453,-5.3781,-5.3799,-5.3817,-5.3934,-5.397,-5.4001,0,0,0,0,0,0,-5.2574,-5.2663,-5.2635,-5.2856,-5.2938,-5.3019,-5.3133,-5.31,-5.3206,-5.319,-5.3187,-5.3209,-5.3406,-5.3449,-5.334,-5.3683,-5.3573,-5.3599,-5.3648,-5.3683,-5.371,-5.3695,-5.3234,0,0,0,0,0,-5.2624,-5.2752,-5.2822,-5.3011,-5.3054,-5.3087,-5.3159,-5.3153,-5.3238,-5.3272,-5.3323,-5.3407,-5.3528,-5.3608,-5.3723,-5.3952,-5.3971,-5.4055,-5.4083,-5.4105,-5.4128,-5.425,-5.4288,-5.3884,-5.3884,-5.3884,0,0,-5.2728,-5.2793,-5.2874,-5.3034,-5.3097,-5.3229,-5.3116,-5.3261,-5.3357,-5.3293,-5.3477,-5.3518,-5.361,-5.3821,-5.3917,-5.3863,-5.4243,-5.4128,-5.4145,-5.4156,-5.4272,-5.431,-5.4344,-5.3896,-5.3894,-5.3892,0,0,-5.2985,-5.3047,-5.321,-5.3276,-5.3372,-5.3393,-5.3432,-5.3519,-5.3544,-5.3728,-5.3682,-5.3797,-5.4007,-5.4074,-5.4136,-5.4417,-5.4375,-5.4455,-5.4598,-5.4717,-5.4749,-5.4777,-5.4875,-5.4911,-5.4477,-5.4477,-5.4478,0,-5.3102,-5.3299,-5.3298,-5.3446,-5.3517,-5.3465,-5.3629,-5.3692,-5.3822,-5.3872,-5.381,-5.4071,-5.413,-5.4354,-5.4423,-5.4475,-5.4518,-5.4443,-5.4745,-5.4773,-5.4799,-5.4893,-5.493,-5.4486,-5.4485,-5.4484,-5.4484,0,-5.3437,-5.3574,-5.3694,-5.382,-5.3905,-5.406,-5.4081,-5.4167,-5.4154,-5.4181,-5.4368,-5.4437,-5.4564,-5.4617,-5.4605,-5.484,-5.4803,-5.4744,-5.4632,-5.4846,-5.4934,-5.497,-5.4499,-5.4496,-5.4493,-5.4491,0,0,-5.3767,-5.3891,-5.3935,-5.3991,-5.4094,-5.4199,-5.4351,-5.4476,-5.4549,-5.464,-5.4766,-5.4944,-5.4889,-5.4959,-5.4955,-5.506,-5.5275,-5.4986,-5.4988,-5.5036,-5.5536,-5.5579,-5.5621,-5.5249,-5.5256,-5.5261,-5.5527,0,-5.403,-5.4298,-5.4301,-5.4546,-5.4671,-5.4624,-5.4756,-5.4833,-5.4862,-5.4971,-5.5003,-5.5129,-5.5047,-5.5089,-5.5191,-5.5228,-5.5375,-5.5209,-5.5365,-5.537,-5.5341,-5.5667,-5.5714,-5.5961,-5.5562,-5.5568,-5.5572,0,-5.4373,-5.4475,-5.4733,-5.4816,-5.4869,-5.4988,-5.5101,-5.5208,-5.5293,-5.5306,-5.5385,-5.5364,-5.5517,-5.5402,-5.5612,-5.5498,-5.5562,-5.559,-5.56,-5.5613,-5.5483,-5.5687,-5.6041,-5.6077,-5.5627,-5.5622,-5.5618,0,-5.4586,-5.4788,-5.4967,-5.5017,-5.5119,-5.5204,-5.525,-5.5328,-5.5402,-5.5502,-5.555,-5.5666,-5.5729,-5.5818,-5.5829,-5.5744,-5.604,-5.5926,-5.6053,-5.6053,-5.6117,-5.6112,-5.6483,-5.6161,-5.6161,-5.616,-5.6159,0,-5.4878,-5.5037,-5.5064,-5.5175,-5.5351,-5.5353,-5.5527,-5.5566,-5.5636,-5.5752,-5.5718,-5.5827,-5.5835,-5.5947,-5.5957,-5.6128,-5.6157,-5.6171,-5.6171,-5.6173,-5.6171,-5.6214,-5.6196,-5.617,-5.6168,-5.6166,-5.6164,0,-5.5145,-5.517,-5.5363,-5.5444,-5.5467,-5.5594,-5.5662,-5.5767,-5.5792,-5.5939,-5.5974,-5.6013,-5.6143,-5.6163,-5.6316,-5.6322,-5.6527,-5.651,-5.6498,-5.6495,-5.6621,-5.6608,-5.7031,-5.7086,-5.673,-5.6733,-5.6736,0,-5.533,-5.5451,-5.5544,-5.562,-5.5671,-5.5793,-5.5869,-5.5874,-5.5954,-5.606,-5.6152,-5.6278,-5.638,-5.659,-5.6631,-5.6747,-5.6732,-5.6872,-5.6749,-5.6746,-5.6731,-5.6723,-5.6735,-5.6895,-5.6899,-5.6902,-5.6905,0,-5.5653,-5.5659,-5.577,-5.5886,-5.5977,-5.6068,-5.6153,-5.6217,-5.6233,-5.6324,-5.6457,-5.6536,-5.6691,-5.6817,-5.6932,-5.6977,-5.6944,-5.6943,-5.6979,-5.6981,-5.6968,-5.6975,-5.6561,-5.6933,-5.693,-5.6928,-5.6927,-5.6926,-5.5883,-5.5988,-5.607,-5.6194,-5.6259,-5.634,-5.6442,-5.648,-5.6591,-5.6718,-5.6714,-5.686,-5.694,-5.7091,-5.7145,-5.7257,-5.7211,-5.7263,-5.7276,-5.7288,-5.73,-5.6952,-5.7278,-5.7278,-5.7277,-5.7276,-5.7276,0,-5.6204,-5.6254,-5.6368,-5.6489,-5.6586,-5.6547,-5.6639,-5.6722,-5.6851,-5.6929,-5.703,-5.7181,-5.7302,-5.7354,-5.7472,-5.7552,-5.754,-5.7583,-5.7576,-5.7587,-5.7335,-5.7291,-5.7591,-5.7591,-5.7591,-5.7591,-5.7591,-5.7591,-5.6382,-5.6556,-5.6572,-5.6778,-5.6826,-5.6969,-5.7025,-5.7098,-5.716,-5.7331,-5.7432,-5.7464,-5.7531,-5.7654,-5.7763,-5.7775,-5.7819,-5.7869,-5.7874,-5.7637,-5.7605,-5.7575,-5.7534,-5.7879,-5.788,-5.8117,-5.8119,-5.812]},{"header":{"parameterUnit":"m.s-1","parameterCategory":1,"la1":30.2991,"la2":30.254,"lo1":-89.0895,"lo2":-89.0444,"dy":0.0017,"dx":0.0017,"nx":28,"ny":28,"refTime":"2025-09-09T09:00:00:Z","depth":0,"parameterNumber":3,"parameterNumberName":"V-component_of_WINDS"},"data":[0,0,0,0,0,0,0,0,0,0,0,0,0,0,0,0,0,0,0,0,0,0,0,0,0,0,0,0,0,0,0,0,0,0,0,0,0,0,0,0,0,0,0,0,0,0,0,0,0,0,0,0,0,0,0,0,0,0,-0.5146,-0.5145,0,-0.5084,-0.5084,-0.5083,-0.5048,-0.5048,-0.5048,-0.5047,-0.4989,-0.4987,-0.4986,0,0,0,0,0,0,0,0,0,0,0,0,0,-0.5235,-0.5233,-0.5146,-0.5145,-0.5144,-0.5084,-0.5084,-0.5083,-0.5048,-0.5048,-0.5048,-0.5047,-0.4989,-0.4987,-0.4986,0,0,0,0,0,0,0,0,0,0,0,0,0,-0.5187,-0.5233,-0.5146,-0.5119,-0.5116,-0.5085,-0.5084,-0.5083,-0.5048,-0.5048,-0.5047,-0.5047,-0.499,-0.4988,-0.4986,-0.4976,0,0,-0.4979,-0.4978,0,0,0,0,0,0,0,0,-0.519,-0.5184,-0.5124,-0.5121,-0.5118,-0.5073,-0.5093,-0.5047,-0.5048,-0.5074,-0.5047,-0.5047,-0.5017,-0.5013,-0.5002,-0.4974,-0.4971,-0.4979,-0.4977,-0.4977,-0.4976,0,0,0,0,0,0,0,-0.5193,-0.5186,-0.5121,-0.5123,-0.5119,-0.5111,-0.5104,-0.5084,-0.5048,-0.5072,-0.5069,-0.5062,-0.5016,-0.5004,-0.5,-0.497,-0.4979,-0.4977,-0.4976,-0.4975,-0.4929,-0.493,0,0,0,0,0,0,-0.52,-0.5189,-0.5123,-0.512,-0.5154,-0.511,-0.5102,-0.5088,-0.5048,-0.5041,-0.5062,-0.5061,-0.5008,-0.5003,-0.4998,-0.4983,-0.4977,-0.4975,-0.4973,-0.4929,-0.4929,-0.493,0,0,0,0,0,0,-0.5202,-0.5195,-0.5126,-0.5154,-0.5144,-0.5109,-0.5093,-0.5087,-0.5075,-0.5041,-0.5034,-0.5057,-0.5008,-0.5001,-0.4981,-0.4981,-0.4974,-0.4972,-0.4929,-0.4929,-0.493,-0.4955,0,0,0,0,0,0,-0.5205,-0.5196,-0.5191,-0.5154,-0.5143,-0.511,-0.5093,-0.5086,-0.5071,-0.5068,-0.5034,-0.5028,-0.5007,-0.4985,-0.4979,-0.4978,-0.497,-0.4929,-0.4929,-0.4929,-0.4954,-0.4956,-0.4958,0,0,0,0,0,-0.5208,-0.5202,-0.5191,-0.5184,-0.5137,-0.511,-0.5103,-0.5078,-0.5071,-0.5067,-0.5044,-0.5029,-0.4982,-0.4983,-0.4977,-0.4975,-0.4929,-0.4929,-0.4929,-0.4953,-0.4956,-0.4958,0,0,0,0,0,0,-0.5243,-0.5197,-0.5184,-0.5166,-0.5142,-0.5104,-0.5098,-0.5082,-0.506,-0.5058,-0.5029,-0.5021,-0.5004,-0.4987,-0.4989,-0.4963,-0.4954,-0.4953,-0.4974,-0.4976,-0.4978,-0.4982,-0.4968,0,0,0,0,0,-0.5248,-0.5229,-0.519,-0.5178,-0.5166,-0.5134,-0.5121,-0.5103,-0.5077,-0.5068,-0.5044,-0.502,-0.4999,-0.4987,-0.4966,-0.4951,-0.4943,-0.4947,-0.4948,-0.495,-0.495,-0.4939,-0.494,-0.493,-0.493,-0.493,0,0,-0.526,-0.5232,-0.5222,-0.5184,-0.5163,-0.5144,-0.5126,-0.5107,-0.5093,-0.5065,-0.5044,-0.5026,-0.4997,-0.4979,-0.497,-0.4965,-0.495,-0.495,-0.4952,-0.495,-0.4939,-0.494,-0.4941,-0.493,-0.493,-0.493,0,0,-0.527,-0.5247,-0.5233,-0.5212,-0.518,-0.5158,-0.5155,-0.5119,-0.5105,-0.5083,-0.5061,-0.5044,-0.501,-0.499,-0.4976,-0.4976,-0.4961,-0.497,-0.498,-0.497,-0.497,-0.4971,-0.497,-0.497,-0.497,-0.497,-0.497,0,-0.5288,-0.5258,-0.5229,-0.521,-0.5194,-0.5166,-0.5152,-0.5133,-0.5096,-0.5086,-0.508,-0.5035,-0.5014,-0.499,-0.499,-0.498,-0.4975,-0.4974,-0.4972,-0.4973,-0.4973,-0.4972,-0.4972,-0.4971,-0.4971,-0.4971,-0.4971,0,-0.5282,-0.5261,-0.5254,-0.5216,-0.5199,-0.5183,-0.5152,-0.5138,-0.5121,-0.51,-0.5078,-0.5052,-0.5024,-0.5017,-0.5002,-0.4991,-0.4988,-0.4978,-0.4968,-0.4975,-0.4974,-0.4973,-0.4973,-0.4973,-0.4972,-0.4972,0,0,-0.5314,-0.5258,-0.5256,-0.5238,-0.52,-0.5183,-0.5166,-0.5137,-0.5126,-0.5101,-0.5085,-0.5056,-0.5045,-0.5029,-0.5011,-0.5002,-0.5002,-0.4992,-0.4991,-0.4994,-0.4987,-0.4995,-0.4995,-0.4992,-0.4992,-0.4992,-0.4989,0,-0.5318,-0.5283,-0.5255,-0.5232,-0.5211,-0.5183,-0.5168,-0.5143,-0.5122,-0.5103,-0.5081,-0.506,-0.5048,-0.5038,-0.5028,-0.5004,-0.5,-0.5004,-0.4977,-0.4977,-0.4985,-0.4994,-0.5003,-0.5002,-0.4989,-0.4989,-0.4988,0,-0.5318,-0.5292,-0.5266,-0.5227,-0.5218,-0.5204,-0.5175,-0.5156,-0.5127,-0.5113,-0.5093,-0.5073,-0.5054,-0.5046,-0.5018,-0.5021,-0.5008,-0.4995,-0.4994,-0.4991,-0.4983,-0.499,-0.5001,-0.5001,-0.4987,-0.4988,-0.4988,0,-0.5343,-0.5302,-0.528,-0.5265,-0.522,-0.5211,-0.5192,-0.5162,-0.5146,-0.5121,-0.511,-0.5084,-0.5069,-0.5049,-0.5023,-0.502,-0.4997,-0.4988,-0.4985,-0.4986,-0.4982,-0.4982,-0.499,-0.4975,-0.4975,-0.4975,-0.4975,0,-0.535,-0.5335,-0.529,-0.5276,-0.5258,-0.5226,-0.521,-0.5188,-0.5162,-0.5144,-0.5119,-0.5103,-0.5069,-0.5049,-0.5029,-0.5008,-0.5002,-0.499,-0.4985,-0.4992,-0.4994,-0.4983,-0.4983,-0.4975,-0.4975,-0.4975,-0.4975,0,-0.5375,-0.5344,-0.5318,-0.5276,-0.5265,-0.5254,-0.5218,-0.5204,-0.5182,-0.5159,-0.5153,-0.5117,-0.5092,-0.5064,-0.5031,-0.5016,-0.4997,-0.499,-0.5007,-0.5003,-0.5002,-0.5002,-0.5003,-0.5001,-0.4988,-0.4988,-0.4988,0,-0.5382,-0.5369,-0.5325,-0.531,-0.5291,-0.5268,-0.5251,-0.5219,-0.5202,-0.5166,-0.5157,-0.5129,-0.5106,-0.5067,-0.504,-0.5013,-0.5005,-0.5007,-0.5001,-0.5008,-0.5004,-0.5005,-0.5003,-0.5009,-0.5009,-0.5009,-0.5009,0,-0.5396,-0.5381,-0.5356,-0.5325,-0.5305,-0.528,-0.5254,-0.5244,-0.5207,-0.5189,-0.5162,-0.5144,-0.5108,-0.5081,-0.5051,-0.5032,-0.5014,-0.5011,-0.5009,-0.5016,-0.5026,-0.502,-0.5011,-0.5012,-0.5011,-0.5011,-0.5011,-0.5011,-0.5411,-0.5398,-0.5364,-0.5337,-0.5313,-0.5289,-0.5273,-0.5247,-0.5224,-0.5191,-0.5174,-0.5147,-0.5117,-0.5074,-0.5055,-0.5034,-0.5029,-0.5026,-0.5025,-0.5025,-0.5026,-0.5029,-0.5029,-0.5029,-0.5029,-0.5029,-0.5029,0,-0.5423,-0.54,-0.5375,-0.5338,-0.5316,-0.53,-0.527,-0.5253,-0.5229,-0.5202,-0.5178,-0.5147,-0.512,-0.5089,-0.506,-0.5049,-0.5041,-0.5043,-0.5043,-0.5039,-0.5033,-0.5038,-0.505,-0.505,-0.505,-0.505,-0.505,-0.505,-0.5427,-0.5403,-0.5383,-0.5347,-0.5323,-0.5295,-0.5279,-0.5257,-0.5234,-0.52,-0.5176,-0.5156,-0.5127,-0.5095,-0.507,-0.5062,-0.5052,-0.5057,-0.5046,-0.5041,-0.504,-0.5038,-0.5042,-0.5055,-0.5055,-0.5053,-0.5053,-0.5053]}]]